{"data":{"norad_id":49300,"epoch":"2026-09-19T19:25:15.174624Z","epoch_age_seconds":85455,"freshness":"FRESH","line1":"1 49300U 21090X   26262.80920341 -.00000009  00000+0 -60121-4 0  9997","line2":"2 49300  87.8909 270.8292 0002379 100.3843 259.7555 13.14502371239996","mean_motion":13.14502371,"eccentricity":0.0002379,"inclination_deg":87.8909,"raan_deg":270.8292,"arg_perigee_deg":100.3843,"mean_anomaly_deg":259.7555,"bstar":-6.0121e-5,"rev_number":23999,"period_min":109.54715881604,"perigee_km":1203.9877879901,"apogee_km":1207.5962214106,"semimajor_km":7583.9290047004,"source":"CELESTRAK","updated_at":"2026-09-20T09:00:44.672952Z"}}